Flag for U.S.A. Weather past 2 weeks in Sedona, Arizona, U.S.A.

Now
90 °F

Sunny.


Feels Like: 86 °F
Forecast: 69 / 92 °F
Wind: 13 mph from Southeast

Location: Sedona Airport

Current Time: Jul 28, 2015 at 11:14:37 AM

Latest Report: Jul 28, 2015 at 10:55 AM


Visibility: 10 mi

Pressure: 30.16 "Hg (26.13 "Hg at 1282m altitude)

Humidity: 22%

Dew point: 46 °F

Location of SedonaLocation

Historic Weather in Sedona — Graph

°F

Sedona temperature yesterday

Maximum temperature yesterday: 93 °F (at 1:15 PM)
Minimum temperature yesterday: 70 °F (at 5:15 AM)
Average temperature yesterday: 81 °F

Past Weeks' High & Low Weather Summary

 TemperatureHumidityPressure
High93 °F (Jul 25, 4:55 PM)100% (Jul 18, 9:15 PM)30.29 "Hg (Jul 18, 9:15 PM)
Low61 °F (Jul 18, 7:15 PM)10% (Jul 26, 5:35 PM)30.00 "Hg (Jul 21, 5:55 PM)
Average78 °F37%30.14 "Hg
* Reported Jul 13 9:15 AM — Jul 28 9:15 AM, Sedona, Weather by CustomWeather, © 2015

Note: Actual official high and low records may vary slightly from our data, if they occured in-between our weather recording intervals... More about our weather records

Advertising

Sedona weather history for previous 24 hours

 ConditionsComfort  
Time TempWeatherWind HumidityBarometerVisibility
9:15 AM
Tue, Jul 28
81 °FSunny.No wind30%30.16 "Hg10 mi
8:55 AM79 °FSunny.No wind30%30.16 "Hg10 mi
8:35 AM77 °FSunny.No wind32%30.16 "Hg10 mi
8:15 AM77 °FSunny.3 mph30%30.16 "Hg10 mi
7:55 AM75 °FSunny.3 mph29%30.15 "Hg10 mi
7:35 AM72 °FSunny.10 mph33%30.14 "Hg10 mi
7:15 AM72 °FSunny.10 mph33%30.14 "Hg10 mi
6:55 AM72 °FSunny.10 mph33%30.13 "Hg10 mi
6:35 AM70 °FSunny.9 mph38%30.13 "Hg10 mi
6:15 AM70 °FSunny.10 mph38%30.13 "Hg10 mi
5:55 AM70 °FSunny.9 mph38%30.12 "Hg10 mi
5:15 AM70 °FClear.13 mph38%30.11 "Hg10 mi
4:55 AM70 °FClear.10 mph38%30.10 "Hg10 mi
4:35 AM70 °FClear.10 mph38%30.10 "Hg10 mi
4:15 AM70 °FClear.10 mph38%30.10 "Hg10 mi
3:55 AM70 °FClear.9 mph40%30.10 "Hg10 mi
3:35 AM70 °FClear.10 mph40%30.09 "Hg10 mi
3:15 AM70 °FClear.10 mph40%30.09 "Hg10 mi
2:15 AM72 °FClear.9 mph38%30.09 "Hg10 mi
1:55 AM72 °FClear.9 mph38%30.09 "Hg10 mi
1:35 AM72 °FClear.9 mph41%30.09 "Hg10 mi
1:15 AM72 °FClear.8 mph41%30.09 "Hg10 mi
12:55 AM72 °FClear.9 mph41%30.09 "Hg10 mi
12:15 AM73 °FClear.8 mph36%30.09 "Hg10 mi
11:55 PM
Mon, Jul 27
73 °FClear.8 mph36%30.09 "Hg10 mi
11:35 PM77 °FClear.3 mph32%30.09 "Hg10 mi
11:15 PM77 °FClear.No wind32%30.10 "Hg10 mi
10:55 PM77 °FClear.No wind34%30.10 "Hg10 mi
10:35 PM77 °FClear.3 mph32%30.10 "Hg10 mi
10:15 PM79 °FClear.5 mph30%30.10 "Hg10 mi
9:55 PM79 °FClear.5 mph30%30.10 "Hg10 mi
9:35 PM79 °FClear.9 mph30%30.09 "Hg10 mi
9:15 PM81 °FClear.6 mph28%30.08 "Hg10 mi
8:55 PM81 °FClear.7 mph28%30.08 "Hg10 mi
8:35 PM81 °FClear.8 mph28%30.06 "Hg10 mi
8:15 PM82 °FClear.9 mph26%30.06 "Hg10 mi
7:55 PM82 °FClear.10 mph26%30.05 "Hg10 mi
7:35 PM84 °FClear.12 mph25%30.04 "Hg10 mi
7:15 PM86 °FSunny.10 mph24%30.03 "Hg10 mi
6:55 PM86 °FSunny.13 mph22%30.02 "Hg10 mi
6:35 PM86 °FSunny.10 mph22%30.02 "Hg10 mi
6:15 PM88 °FSunny.10 mph21%30.02 "Hg10 mi
5:55 PM88 °FSunny.6 mph21%30.01 "Hg10 mi
5:35 PM90 °FSunny.7 mph20%30.01 "Hg10 mi
5:15 PM90 °FSunny.15 mph20%30.02 "Hg10 mi
4:55 PM90 °FSunny.10 mph20%30.02 "Hg10 mi
4:35 PM90 °FSunny.16 mph18%30.02 "Hg10 mi
4:15 PM91 °FScattered clouds.10 mph17%30.02 "Hg10 mi
3:55 PM91 °FScattered clouds.13 mph18%30.02 "Hg10 mi
3:15 PM91 °FSunny.13 mph18%30.04 "Hg10 mi
2:15 PM93 °FSunny.16 mph17%30.05 "Hg10 mi
1:55 PM90 °FSunny.10 mph20%30.07 "Hg10 mi
1:15 PM93 °FSunny.9 mph17%30.07 "Hg10 mi
12:55 PM88 °FSunny.6 mph21%30.08 "Hg10 mi
12:35 PM88 °FSunny.10 mph21%30.08 "Hg10 mi
12:15 PM90 °FSunny.13 mph20%30.09 "Hg10 mi
11:55 AM88 °FSunny.16 mph21%30.08 "Hg10 mi
11:35 AM88 °FSunny.6 mph19%30.09 "Hg10 mi
11:15 AM88 °FSunny.15 mph19%30.10 "Hg10 mi
Weather by CustomWeather, © 2015

See weather overviewHow to use our weather pages